AFR452 LFML-LFPO

Flight info

Callsign AFR452
Flight time 1h 5m
Altitude 34000
Route ETREK DCT MADOT DCT MOPEM DCT PIBAT
Aircraft A320/M-SDE3FGHIRWY/LB1

Departure

Time 2026-05-05 19:12
Airport Marseille Provence Airport (LFML)

Arrival

Time 2026-05-05 20:17
Airport Paris-Orly Airport (LFPO)
Time Latitude Longitude Altitude Speed Heading
2026-05-05 18:44 43.44111 5.21995 36 ft 0 kts 54°
2026-05-05 18:57 43.44101 5.21977 36 ft 4 kts 54°
2026-05-05 18:57 43.44089 5.21953 36 ft 4 kts 47°
2026-05-05 18:58 43.44070 5.21936 36 ft 4 kts 352°
2026-05-05 18:58 43.44050 5.21951 36 ft 4 kts 314°
2026-05-05 18:58 43.44041 5.21963 37 ft 0 kts 314°
2026-05-05 19:00 43.44042 5.21963 37 ft 0 kts 314°
2026-05-05 19:01 43.44046 5.21956 37 ft 2 kts 314°
2026-05-05 19:01 43.44056 5.21942 36 ft 3 kts 314°
2026-05-05 19:02 43.44072 5.21919 36 ft 4 kts 314°
2026-05-05 19:02 43.44093 5.21888 35 ft 5 kts 313°
2026-05-05 19:02 43.44112 5.21842 34 ft 6 kts 283°
2026-05-05 19:02 43.44097 5.21793 33 ft 5 kts 230°
2026-05-05 19:03 43.44074 5.21759 33 ft 4 kts 227°
2026-05-05 19:03 43.44056 5.21734 32 ft 4 kts 224°
2026-05-05 19:03 43.44027 5.21697 33 ft 8 kts 222°
2026-05-05 19:03 43.43977 5.21634 34 ft 12 kts 223°
2026-05-05 19:04 43.43927 5.21554 32 ft 11 kts 247°
2026-05-05 19:04 43.43958 5.21434 30 ft 17 kts 313°
2026-05-05 19:04 43.44036 5.21323 28 ft 15 kts 315°
2026-05-05 19:04 43.44109 5.21222 26 ft 15 kts 313°
2026-05-05 19:05 43.44181 5.21115 23 ft 15 kts 313°
2026-05-05 19:05 43.44255 5.21005 21 ft 16 kts 308°
2026-05-05 19:05 43.44312 5.20876 19 ft 16 kts 301°
2026-05-05 19:05 43.44378 5.20766 18 ft 14 kts 314°
2026-05-05 19:06 43.44443 5.20673 18 ft 13 kts 314°
2026-05-05 19:06 43.44501 5.20589 18 ft 11 kts 314°
2026-05-05 19:06 43.44553 5.20514 18 ft 10 kts 314°
2026-05-05 19:06 43.44600 5.20448 19 ft 9 kts 314°
2026-05-05 19:07 43.44642 5.20388 17 ft 8 kts 314°
2026-05-05 19:07 43.44681 5.20334 19 ft 8 kts 314°
2026-05-05 19:07 43.44722 5.20275 19 ft 10 kts 314°
2026-05-05 19:07 43.44782 5.20189 20 ft 15 kts 314°
2026-05-05 19:08 43.44857 5.20082 17 ft 15 kts 314°
2026-05-05 19:08 43.44926 5.19984 19 ft 13 kts 314°
2026-05-05 19:08 43.44963 5.19929 18 ft 7 kts 308°
2026-05-05 19:08 43.44976 5.19897 17 ft 0 kts 291°
2026-05-05 19:09 43.44977 5.19889 17 ft 4 kts 286°
2026-05-05 19:09 43.44972 5.19839 17 ft 5 kts 247°
2026-05-05 19:10 43.44930 5.19792 17 ft 11 kts 199°
2026-05-05 19:10 43.44861 5.19813 19 ft 11 kts 143°
2026-05-05 19:10 43.44797 5.19899 17 ft 14 kts 137°
2026-05-05 19:10 43.44738 5.19981 16 ft 0 kts 134°
2026-05-05 19:11 43.44736 5.19983 17 ft 6 kts 134°
2026-05-05 19:11 43.44518 5.20293 20 ft 81 kts 134°
2026-05-05 19:11 43.43982 5.21058 27 ft 138 kts 134°
2026-05-05 19:11 43.43209 5.22137 160 ft 173 kts 135°
2026-05-05 19:12 43.42333 5.23380 694 ft 185 kts 130°
2026-05-05 19:12 43.41860 5.24988 1485 ft 186 kts 91°
2026-05-05 19:12 43.42046 5.26776 2080 ft 197 kts 80°
2026-05-05 19:12 43.42462 5.28673 2446 ft 218 kts 57°
2026-05-05 19:13 43.43687 5.29932 3005 ft 232 kts 16°
2026-05-05 19:13 43.45346 5.29960 3417 ft 255 kts 348°
2026-05-05 19:13 43.47095 5.29230 4067 ft 269 kts 339°
2026-05-05 19:13 43.48849 5.28259 4930 ft 275 kts 336°
2026-05-05 19:14 43.50657 5.27227 5816 ft 280 kts 337°
2026-05-05 19:14 43.52491 5.26231 6659 ft 286 kts 338°
2026-05-05 19:14 43.54375 5.25275 7488 ft 291 kts 339°
2026-05-05 19:14 43.56299 5.24354 8342 ft 295 kts 339°
2026-05-05 19:15 43.58263 5.23448 9203 ft 300 kts 339°
2026-05-05 19:15 43.60235 5.22555 10011 ft 305 kts 339°
2026-05-05 19:15 43.62315 5.21621 10378 ft 326 kts 339°
2026-05-05 19:15 43.64537 5.20623 10747 ft 344 kts 339°
2026-05-05 19:16 43.66841 5.19590 11440 ft 351 kts 339°
2026-05-05 19:16 43.69181 5.18544 12204 ft 355 kts 339°
2026-05-05 19:16 43.71539 5.17489 12966 ft 359 kts 338°
2026-05-05 19:16 43.73918 5.16397 13733 ft 361 kts 337°
2026-05-05 19:17 43.76307 5.15271 14412 ft 365 kts 337°
2026-05-05 19:17 43.78717 5.14120 15060 ft 369 kts 337°
2026-05-05 19:17 43.81159 5.12951 15714 ft 373 kts 337°
2026-05-05 19:17 43.83620 5.11776 16353 ft 377 kts 337°
2026-05-05 19:18 43.86117 5.10586 16984 ft 381 kts 337°
2026-05-05 19:18 43.88664 5.09493 17597 ft 388 kts 344°
2026-05-05 19:18 43.91339 5.08839 18208 ft 393 kts 347°
2026-05-05 19:18 43.94052 5.08223 18793 ft 396 kts 348°
2026-05-05 19:19 43.96774 5.07600 19391 ft 398 kts 347°
2026-05-05 19:19 43.99512 5.06972 19967 ft 401 kts 347°
2026-05-05 19:19 44.02276 5.06338 20535 ft 404 kts 347°
2026-05-05 19:19 44.05060 5.05699 21102 ft 407 kts 347°
2026-05-05 19:20 44.07859 5.05057 21668 ft 410 kts 347°
2026-05-05 19:20 44.10681 5.04408 22242 ft 413 kts 347°
2026-05-05 19:20 44.13529 5.03754 22796 ft 416 kts 348°
2026-05-05 19:20 44.16390 5.03098 23326 ft 419 kts 348°
2026-05-05 19:21 44.19285 5.02426 23784 ft 422 kts 347°
2026-05-05 19:21 44.22152 5.01483 24204 ft 424 kts 342°
2026-05-05 19:21 44.25009 5.00435 24608 ft 427 kts 341°
2026-05-05 19:21 44.27895 4.99330 25009 ft 430 kts 341°
2026-05-05 19:22 44.30779 4.98198 25375 ft 434 kts 340°
2026-05-05 19:22 44.33699 4.97043 25750 ft 437 kts 340°
2026-05-05 19:22 44.36647 4.95885 26108 ft 441 kts 340°
2026-05-05 19:22 44.39612 4.94732 26493 ft 445 kts 340°
2026-05-05 19:23 44.42615 4.93574 26823 ft 449 kts 340°
2026-05-05 19:23 44.45631 4.92417 27185 ft 452 kts 339°
2026-05-05 19:23 44.48676 4.91248 27546 ft 455 kts 339°
2026-05-05 19:23 44.51741 4.90072 27916 ft 458 kts 339°
2026-05-05 19:24 44.54818 4.88892 28284 ft 460 kts 339°
2026-05-05 19:24 44.57909 4.87698 28635 ft 462 kts 339°
2026-05-05 19:24 44.61010 4.86494 28984 ft 464 kts 339°
2026-05-05 19:24 44.64133 4.85276 29326 ft 467 kts 339°
2026-05-05 19:25 44.67277 4.84051 29676 ft 469 kts 339°
2026-05-05 19:25 44.70436 4.82822 29995 ft 471 kts 338°
2026-05-05 19:25 44.73601 4.81591 30262 ft 474 kts 339°
2026-05-05 19:25 44.76775 4.80358 30527 ft 475 kts 339°
2026-05-05 19:26 44.79977 4.79109 30787 ft 477 kts 338°
2026-05-05 19:26 44.83173 4.77862 31046 ft 478 kts 339°
2026-05-05 19:26 44.86380 4.76610 31295 ft 479 kts 339°
2026-05-05 19:26 44.89599 4.75353 31595 ft 479 kts 339°
2026-05-05 19:27 44.92808 4.74099 31983 ft 478 kts 339°
2026-05-05 19:27 44.96008 4.72846 32324 ft 477 kts 339°
2026-05-05 19:27 44.99205 4.71594 32676 ft 475 kts 339°
2026-05-05 19:27 45.02385 4.70348 33022 ft 474 kts 339°
2026-05-05 19:28 45.05554 4.69105 33375 ft 473 kts 339°
2026-05-05 19:28 45.08725 4.67859 33728 ft 472 kts 339°
2026-05-05 19:28 45.11881 4.66613 33889 ft 469 kts 339°
2026-05-05 19:28 45.14992 4.65381 33902 ft 461 kts 339°
2026-05-05 19:29 45.21218 4.63308 33905 ft 462 kts 346°
2026-05-05 19:29 45.27557 4.61867 33900 ft 460 kts 346°
2026-05-05 19:30 45.33864 4.60427 33899 ft 457 kts 346°
2026-05-05 19:30 45.40131 4.58993 33898 ft 456 kts 346°
2026-05-05 19:31 45.46398 4.57549 33895 ft 456 kts 346°
2026-05-05 19:31 45.52667 4.56106 33901 ft 456 kts 347°
2026-05-05 19:32 45.58921 4.54666 33907 ft 455 kts 347°
2026-05-05 19:32 45.65167 4.53216 33906 ft 455 kts 347°
2026-05-05 19:33 45.70352 4.52013 33909 ft 454 kts 347°
2026-05-05 19:33 45.76590 4.50569 33899 ft 454 kts 347°
2026-05-05 19:34 45.82827 4.49121 33895 ft 454 kts 347°
2026-05-05 19:35 45.92171 4.46943 33896 ft 454 kts 348°
2026-05-05 19:35 45.98414 4.45481 33883 ft 454 kts 348°
2026-05-05 19:36 46.04658 4.44015 33874 ft 455 kts 348°
2026-05-05 19:36 46.10901 4.42536 33876 ft 455 kts 348°
2026-05-05 19:37 46.17156 4.41057 33869 ft 456 kts 348°
2026-05-05 19:37 46.23419 4.39586 33867 ft 456 kts 348°
2026-05-05 19:38 46.29676 4.38114 33883 ft 455 kts 349°
2026-05-05 19:38 46.35929 4.36633 33880 ft 455 kts 349°
2026-05-05 19:39 46.42176 4.35148 33888 ft 455 kts 349°
2026-05-05 19:39 46.48411 4.33654 33879 ft 455 kts 349°
2026-05-05 19:40 46.54649 4.32152 33876 ft 454 kts 349°
2026-05-05 19:40 46.60888 4.30650 33868 ft 454 kts 349°
2026-05-05 19:41 46.67129 4.29162 33861 ft 454 kts 349°
2026-05-05 19:41 46.73367 4.27663 33861 ft 454 kts 349°
2026-05-05 19:42 46.79588 4.26103 33858 ft 453 kts 345°
2026-05-05 19:42 46.85500 4.23074 33857 ft 450 kts 336°
2026-05-05 19:43 46.91166 4.19216 33864 ft 449 kts 331°
2026-05-05 19:43 46.96713 4.15057 33860 ft 448 kts 330°
2026-05-05 19:44 47.02253 4.10848 33504 ft 447 kts 330°
2026-05-05 19:44 47.05014 4.08773 33247 ft 445 kts 331°
2026-05-05 19:44 47.07768 4.06717 32974 ft 442 kts 331°
2026-05-05 19:44 47.10509 4.04677 32696 ft 440 kts 331°
2026-05-05 19:45 47.13228 4.02648 32443 ft 438 kts 331°
2026-05-05 19:45 47.15930 4.00625 32182 ft 435 kts 331°
2026-05-05 19:45 47.18623 3.98606 31935 ft 433 kts 331°
2026-05-05 19:46 47.23971 3.94592 31870 ft 432 kts 331°
2026-05-05 19:46 47.29317 3.90560 31870 ft 432 kts 331°
2026-05-05 19:47 47.34661 3.86516 31798 ft 432 kts 331°
2026-05-05 19:47 47.37348 3.84482 30815 ft 438 kts 332°
2026-05-05 19:47 47.40055 3.82431 29668 ft 437 kts 332°
2026-05-05 19:47 47.42743 3.80394 28522 ft 432 kts 332°
2026-05-05 19:48 47.45398 3.78380 27491 ft 426 kts 332°
2026-05-05 19:48 47.48018 3.76390 26495 ft 420 kts 331°
2026-05-05 19:48 47.50602 3.74421 25469 ft 416 kts 331°
2026-05-05 19:48 47.53163 3.72470 24493 ft 412 kts 331°
2026-05-05 19:49 47.55702 3.70533 23534 ft 408 kts 331°
2026-05-05 19:49 47.57367 3.69262 22817 ft 406 kts 331°
2026-05-05 19:49 47.60695 3.66714 21766 ft 393 kts 330°
2026-05-05 19:49 47.63067 3.64902 21304 ft 377 kts 330°
2026-05-05 19:50 47.65378 3.63139 20520 ft 371 kts 330°
2026-05-05 19:50 47.67666 3.61392 19652 ft 368 kts 330°
2026-05-05 19:50 47.69941 3.59650 18789 ft 367 kts 330°
2026-05-05 19:50 47.72199 3.57915 17916 ft 365 kts 330°
2026-05-05 19:51 47.74444 3.56186 16982 ft 362 kts 330°
2026-05-05 19:51 47.76673 3.54468 16062 ft 360 kts 330°
2026-05-05 19:51 47.78885 3.52764 15183 ft 357 kts 330°
2026-05-05 19:51 47.81081 3.51071 14319 ft 354 kts 330°
2026-05-05 19:52 47.83256 3.49392 13536 ft 349 kts 330°
2026-05-05 19:52 47.85393 3.47746 12734 ft 342 kts 329°
2026-05-05 19:52 47.87483 3.46135 11955 ft 335 kts 329°
2026-05-05 19:52 47.89535 3.44552 11201 ft 329 kts 329°
2026-05-05 19:53 47.91550 3.42994 10441 ft 323 kts 329°
2026-05-05 19:53 47.93511 3.41469 9983 ft 310 kts 328°
2026-05-05 19:53 47.95348 3.39992 9845 ft 294 kts 327°
2026-05-05 19:53 47.97132 3.38549 9853 ft 291 kts 328°
2026-05-05 19:54 47.98918 3.37136 9842 ft 290 kts 328°
2026-05-05 19:54 48.00709 3.35744 9837 ft 289 kts 328°
2026-05-05 19:54 48.02494 3.34367 9838 ft 289 kts 329°
2026-05-05 19:54 48.04282 3.32990 9838 ft 289 kts 329°
2026-05-05 19:55 48.06068 3.31611 9841 ft 289 kts 328°
2026-05-05 19:55 48.07856 3.30229 9838 ft 289 kts 328°
2026-05-05 19:55 48.09642 3.28849 9835 ft 289 kts 328°
2026-05-05 19:55 48.11430 3.27463 9835 ft 289 kts 328°
2026-05-05 19:56 48.13210 3.26076 9833 ft 288 kts 328°
2026-05-05 19:56 48.14984 3.24693 9836 ft 288 kts 328°
2026-05-05 19:56 48.16763 3.23305 9835 ft 288 kts 328°
2026-05-05 19:56 48.18541 3.21919 9840 ft 288 kts 328°
2026-05-05 19:57 48.20247 3.20364 9836 ft 286 kts 319°
2026-05-05 19:57 48.21251 3.19043 9836 ft 284 kts 310°
2026-05-05 19:57 48.23179 3.16046 9835 ft 313 kts 310°
2026-05-05 19:57 48.24706 3.13687 9835 ft 317 kts 310°
2026-05-05 19:58 48.25968 3.11106 9830 ft 297 kts 291°
2026-05-05 19:58 48.26595 3.08267 9833 ft 280 kts 283°
2026-05-05 19:58 48.27103 3.05473 9831 ft 276 kts 282°
2026-05-05 19:58 48.27599 3.02694 9832 ft 275 kts 282°
2026-05-05 19:59 48.28094 2.99919 9836 ft 275 kts 282°
2026-05-05 19:59 48.28578 2.97134 9833 ft 276 kts 282°
2026-05-05 19:59 48.29049 2.94331 9832 ft 277 kts 282°
2026-05-05 19:59 48.29518 2.91532 9835 ft 277 kts 282°
2026-05-05 20:00 48.29986 2.88732 9836 ft 277 kts 282°
2026-05-05 20:00 48.30456 2.85927 9838 ft 277 kts 282°
2026-05-05 20:00 48.30925 2.83129 9838 ft 277 kts 282°
2026-05-05 20:00 48.31395 2.80326 9838 ft 276 kts 282°
2026-05-05 20:01 48.31903 2.77541 9836 ft 277 kts 289°
2026-05-05 20:01 48.32557 2.74816 9837 ft 277 kts 284°
2026-05-05 20:01 48.33052 2.72021 9841 ft 277 kts 282°
2026-05-05 20:01 48.33521 2.69216 9841 ft 277 kts 282°
2026-05-05 20:02 48.33988 2.66404 9792 ft 278 kts 282°
2026-05-05 20:02 48.34455 2.63584 9387 ft 277 kts 282°
2026-05-05 20:02 48.34916 2.60778 8979 ft 275 kts 282°
2026-05-05 20:02 48.35370 2.57997 8600 ft 274 kts 282°
2026-05-05 20:03 48.35808 2.55217 8208 ft 273 kts 282°
2026-05-05 20:03 48.36220 2.52434 7828 ft 273 kts 282°
2026-05-05 20:03 48.36624 2.49653 7446 ft 272 kts 283°
2026-05-05 20:03 48.37327 2.47036 7073 ft 270 kts 300°
2026-05-05 20:04 48.38300 2.44638 6834 ft 267 kts 302°
2026-05-05 20:04 48.39295 2.42261 6836 ft 267 kts 302°
2026-05-05 20:04 48.40255 2.39972 6846 ft 250 kts 302°
2026-05-05 20:04 48.41152 2.37831 6810 ft 236 kts 302°
2026-05-05 20:05 48.42023 2.35727 6453 ft 237 kts 303°
2026-05-05 20:05 48.42868 2.33587 6074 ft 239 kts 302°
2026-05-05 20:05 48.43704 2.31417 5687 ft 240 kts 302°
2026-05-05 20:05 48.44538 2.29237 5303 ft 241 kts 302°
2026-05-05 20:06 48.45367 2.27068 5036 ft 236 kts 302°
2026-05-05 20:06 48.46173 2.24947 4785 ft 231 kts 302°
2026-05-05 20:06 48.46962 2.22869 4531 ft 226 kts 302°
2026-05-05 20:06 48.47737 2.20829 4271 ft 223 kts 302°
2026-05-05 20:07 48.48492 2.18819 4072 ft 217 kts 302°
2026-05-05 20:07 48.49228 2.16838 4017 ft 216 kts 302°
2026-05-05 20:07 48.49968 2.14852 4009 ft 218 kts 302°
2026-05-05 20:07 48.50699 2.12835 4016 ft 220 kts 302°
2026-05-05 20:08 48.51426 2.10802 4016 ft 221 kts 302°
2026-05-05 20:08 48.52154 2.08764 4025 ft 220 kts 302°
2026-05-05 20:08 48.52883 2.06736 4025 ft 219 kts 302°
2026-05-05 20:08 48.53613 2.04716 4025 ft 219 kts 302°
2026-05-05 20:09 48.54365 2.02716 4022 ft 218 kts 309°
2026-05-05 20:09 48.55404 2.01096 4027 ft 213 kts 328°
2026-05-05 20:09 48.56669 2.00124 4024 ft 196 kts 346°
2026-05-05 20:09 48.57974 1.99807 4025 ft 188 kts
2026-05-05 20:10 48.59241 2.00066 4057 ft 177 kts 15°
2026-05-05 20:10 48.60345 2.00653 4030 ft 161 kts 31°
2026-05-05 20:10 48.61082 2.01791 4019 ft 144 kts 50°
2026-05-05 20:10 48.61645 2.02994 4027 ft 139 kts 54°
2026-05-05 20:11 48.62147 2.04224 4024 ft 137 kts 56°
2026-05-05 20:11 48.62624 2.05469 4028 ft 137 kts 57°
2026-05-05 20:11 48.63091 2.06732 3975 ft 138 kts 58°
2026-05-05 20:11 48.63551 2.07999 3858 ft 137 kts 58°
2026-05-05 20:12 48.64004 2.09254 3690 ft 136 kts 58°
2026-05-05 20:12 48.64301 2.10082 3570 ft 135 kts 58°
2026-05-05 20:12 48.64749 2.11331 3402 ft 135 kts 58°
2026-05-05 20:12 48.65194 2.12575 3224 ft 134 kts 58°
2026-05-05 20:13 48.65636 2.13813 3038 ft 134 kts 58°
2026-05-05 20:13 48.66083 2.15065 2854 ft 133 kts 57°
2026-05-05 20:13 48.66521 2.16292 2681 ft 133 kts 58°
2026-05-05 20:13 48.66958 2.17518 2511 ft 133 kts 58°
2026-05-05 20:14 48.67395 2.18746 2349 ft 131 kts 58°
2026-05-05 20:14 48.67827 2.19959 2139 ft 130 kts 57°
2026-05-05 20:14 48.68257 2.21164 1944 ft 130 kts 57°
2026-05-05 20:14 48.68683 2.22363 1776 ft 129 kts 57°
2026-05-05 20:15 48.69105 2.23548 1604 ft 129 kts 57°
2026-05-05 20:15 48.69531 2.24747 1406 ft 129 kts 57°
2026-05-05 20:15 48.69959 2.25950 1235 ft 130 kts 59°
2026-05-05 20:15 48.70387 2.27156 1057 ft 130 kts 59°
2026-05-05 20:16 48.70812 2.28351 883 ft 128 kts 57°
2026-05-05 20:16 48.71238 2.29551 698 ft 129 kts 58°
2026-05-05 20:16 48.71671 2.30774 529 ft 131 kts 59°
2026-05-05 20:16 48.72102 2.31965 354 ft 131 kts 59°
2026-05-05 20:17 48.72496 2.33087 295 ft 99 kts 63°
2026-05-05 20:17 48.72746 2.33773 296 ft 50 kts 63°
2026-05-05 20:17 48.72822 2.34009 297 ft 1 kts 65°
2026-05-05 20:17 48.72861 2.34131 293 ft 26 kts 62°
2026-05-05 20:18 48.72949 2.34374 292 ft 27 kts 62°
2026-05-05 20:18 48.73000 2.34619 293 ft 26 kts 80°
2026-05-05 20:18 48.73023 2.34897 294 ft 19 kts 83°
2026-05-05 20:18 48.73033 2.35013 291 ft 14 kts 83°
2026-05-05 20:19 48.73037 2.35062 292 ft 0 kts 83°
2026-05-05 20:19 48.73039 2.35097 293 ft 7 kts 86°
2026-05-05 20:19 48.73036 2.35147 292 ft 3 kts 99°
2026-05-05 20:20 48.73032 2.35172 292 ft 5 kts 107°
2026-05-05 20:20 48.73002 2.35247 292 ft 11 kts 132°
2026-05-05 20:20 48.72970 2.35285 291 ft 7 kts 148°
2026-05-05 20:20 48.72937 2.35315 291 ft 4 kts 143°
2026-05-05 20:21 48.72910 2.35366 291 ft 8 kts 116°
2026-05-05 20:21 48.72906 2.35459 295 ft 6 kts 87°
2026-05-05 20:21 48.72902 2.35507 291 ft 4 kts 110°
2026-05-05 20:21 48.72873 2.35549 293 ft 7 kts 151°
2026-05-05 20:22 48.72819 2.35577 295 ft 7 kts 161°
2026-05-05 20:22 48.72781 2.35636 291 ft 10 kts 110°
2026-05-05 20:22 48.72781 2.35697 291 ft 0 kts 81°
2026-05-05 20:22 48.72786 2.35713 291 ft 2 kts 64°
2026-05-05 20:23 48.72800 2.35733 291 ft 4 kts 32°
2026-05-05 20:23 48.72816 2.35742 291 ft 2 kts 14°
2026-05-05 20:23 48.72828 2.35746 291 ft 3 kts 14°
2026-05-05 20:23 48.72841 2.35752 291 ft 4 kts 15°
2026-05-05 20:24 48.72843 2.35752 291 ft 0 kts 15°